STARLINK-3227 (49765 NORAD) Tracking and Keplerian Element Data

This shows tracking and keplerian element data for the satellite.

Feedback or suggestion? Click here.




ElementValue
Catalog49765
NameSTARLINK-3227
Epoch Orbit130
Epoch Day140.58334491
Epoch Year2022
RAAN255.0517
Inclination53.218
Eccentricity0.0002057
Argument of Perigee38.6485
Mean Anonmoly312.8718
Mean Motion15.08852892
Decay Rate-0.00039802
L11 49765U 21115AT 22140.58334491 -.00039802 00000+0 -24956-2 0 9998
L22 49765 53.2180 255.0517 0002057 38.6485 312.8718 15.08852892 1307

Live tracking and technical data element details for STARLINK-3227 (NORAD 49765). STARLINK-3227 can be tracked NOW for your location showing map with azimuth and elevation plus other details from your city location.

Track the satellite on the map from your city or location and see movement details for azimuth, elevation, latitude, longitude, range, height, and movement on the map or in text.







IsCatalogInMostPopularTable: catalog: 49765, numindb: 23
Update: records affected: 1



GetName: 49765 STARLINK-3227

Hit Count: updated at: Mon, 23 May 2022 21:30:41 GMT